"2016-01-13 00:00:00",1280091,16.33,325.2,7.092,1.294,12.7,102.1806,4.864,6.164,14.95,0,109.9,13.26,5.63,287.2
"2016-01-13 00:00:30",1280092,15.97,326.3,6.054,1.361,12.1,102.1864,4.879,6.182,15.41,0,110,13.26,5.65,288.3
"2016-01-13 00:01:00",1280093,17.17,325.3,6.451,1.311,12.38,102.1878,4.883,6.143,15.26,0,109.9,13.27,5.65,287.3
"2016-01-13 00:01:30",1280094,16.72,324.6,6.538,1.312,12.52,102.1896,4.887,6.147,15.37,0,109.9,13.26,5.66,286.6
"2016-01-13 00:02:00",1280095,17.37,326.3,6.411,1.321,12.96,102.1927,4.895,6.184,14.77,0,109.9,13.27,5.66,288.3
"2016-01-13 00:02:30",1280096,17,325.7,6.973,1.32,12.48,102.2094,4.938,6.152,14.7,0,109.9,13.27,5.71,287.7
"2016-01-13 00:03:00",1280097,17.82,323.4,6.01,1.428,12.14,102.2255,4.979,6.184,15.16,0,109.9,13.26,5.75,285.4
"2016-01-13 00:03:30",1280098,18.41,324.4,6.892,1.379,12.59,102.2275,4.984,6.193,14.81,0,109.9,13.26,5.75,286.4
"2016-01-13 00:04:00",1280099,17.17,323.4,6.55,1.601,12.81,102.2312,4.994,6.186,14.47,0,109.9,13.26,5.76,285.4
"2016-01-13 00:04:30",1280100,18.62,324.3,6.756,1.38,13.01,102.2462,5.032,6.217,14.54,0,109.9,13.27,5.80,286.3
"2016-01-13 00:05:00",1280101,18.07,325.2,6.425,1.294,12.53,102.2618,5.072,6.241,14.58,0,109.9,13.27,5.84,287.2
"2016-01-13 00:05:30",1280102,17.56,325.1,6.116,1.394,12.42,102.2629,5.075,6.267,14.72,0,109.9,13.27,5.84,287.1
"2016-01-13 00:06:00",1280103,16.8,325.9,6.382,1.256,12.39,102.2705,5.094,6.263,14.74,0,109.9,13.22,5.86,287.9
"2016-01-13 00:06:30",1280104,16.45,325.4,6.974,1.391,12.71,102.2861,5.134,6.259,14.51,0,109.9,13.23,5.90,287.4
"2016-01-13 00:07:00",1280105,16.18,323.4,6.93,1.187,12.81,102.298,5.164,6.305,14.48,0,109.9,13.23,5.93,285.4
"2016-01-13 00:07:30",1280106,16.04,325,6.407,1.35,12.94,102.2988,5.166,6.343,14.35,0,109.9,13.23,5.94,287.0
"2016-01-13 00:08:00",1280107,15.51,328.1,6.844,1.256,12.95,102.3133,5.203,6.348,14.24,0,109.9,13.22,5.97,290.1
"2016-01-13 00:08:30",1280108,15.56,329.8,6.64,1.316,12.48,102.3339,5.256,6.38,14.27,0,109.9,13.22,6.03,291.8
"2016-01-13 00:09:00",1280109,15.18,326.5,7.393,1.451,12.64,102.3365,5.262,6.402,14.23,0,109.9,13.21,6.03,288.5
"2016-01-13 00:09:30",1280110,15.69,325.6,7.256,1.644,12.51,102.3543,5.308,6.427,14.35,0,109.9,13.21,6.08,287.6
"2016-01-13 00:10:00",1280111,15.63,328.6,6.732,1.335,12.84,102.3708,5.35,6.469,14.32,0,109.9,13.21,6.12,290.6
"2016-01-13 00:10:30",1280112,15.53,329.1,8.04,1.504,12.38,102.3725,5.354,6.482,14.24,0,109.9,13.2,6.13,291.1
"2016-01-13 00:11:00",1280113,15.8,329.8,6.836,1.393,13.13,102.3821,5.379,6.517,14.24,0,109.9,13.2,6.15,291.8
"2016-01-13 00:11:30",1280114,16.54,323.1,6.381,1.306,12.86,102.3996,5.424,6.525,14.13,0,109.9,13.2,6.19,285.1
"2016-01-13 00:12:00",1280115,15.23,322.6,7.807,1.29,12.56,102.407,5.442,6.553,14.09,0,109.9,13.2,6.21,284.6
"2016-01-13 00:12:30",1280116,14.7,326.1,6.149,1.319,12.5,102.4166,5.467,6.594,14.1,0,109.9,13.2,6.24,288.1
"2016-01-13 00:13:00",1280117,14.15,329.5,6.411,1.362,12.2,102.4265,5.492,6.622,14.07,0,109.9,13.19,6.26,291.5
"2016-01-13 00:13:30",1280118,12.99,330.1,7.968,1.407,12.33,102.4369,5.519,6.627,14.18,0,109.9,13.19,6.29,292.1
"2016-01-13 00:14:00",1280119,14.31,329.4,6.651,1.39,12.25,102.4403,5.528,6.671,14.29,0,109.9,13.19,6.30,291.4
"2016-01-13 00:14:30",1280120,15.74,326.2,7.057,1.368,12.73,102.4415,5.531,6.656,14.24,0,109.9,13.2,6.30,288.2
"2016-01-13 00:15:00",1280121,14.16,323.8,6.249,1.328,12.16,102.442,5.532,6.675,14.21,0,109.9,13.2,6.30,285.8
"2016-01-13 00:15:30",1280122,13.85,325.1,6.592,1.303,11.96,102.4415,5.531,6.699,14.29,0,109.9,13.2,6.30,287.1
"2016-01-13 00:16:00",1280123,14.51,326.7,6.886,1.258,12.42,102.4418,5.531,6.677,14.31,0,109.9,13.2,6.30,288.7
"2016-01-13 00:16:30",1280124,14.28,328.7,6.967,1.3,12.46,102.4412,5.53,6.681,14.26,0,109.9,13.2,6.30,290.7
"2016-01-13 00:17:00",1280125,13.95,329.4,6.432,1.399,12.36,102.4409,5.529,6.719,14.31,0,109.9,13.2,6.30,291.4
"2016-01-13 00:17:30",1280126,13.59,329.5,6.266,1.297,12.13,102.4398,5.526,6.713,14.29,0,109.9,13.2,6.30,291.5
"2016-01-13 00:18:00",1280127,13.76,327.8,6.314,1.354,12.08,102.4344,5.513,6.69,14.24,0,109.9,13.2,6.28,289.8
"2016-01-13 00:18:30",1280128,13.18,330.3,6.984,1.324,12.2,102.4287,5.498,6.687,14.29,0,109.9,13.2,6.27,292.3
"2016-01-13 00:19:00",1280129,12.59,327.6,6.884,1.357,12.24,102.4231,5.484,6.684,14.37,0,109.9,13.2,6.25,289.6
"2016-01-13 00:19:30",1280130,13.46,331.6,6.482,1.289,12.26,102.4202,5.476,6.706,14.37,0,109.9,13.2,6.25,293.6
"2016-01-13 00:20:00",1280131,13.5,333.3,6.168,1.308,12.6,102.4222,5.482,6.709,14.37,0,109.9,13.2,6.25,295.3
"2016-01-13 00:20:30",1280132,13.49,332.4,6.57,1.305,11.88,102.4186,5.472,6.693,14.36,0,109.9,13.2,6.24,294.4
"2016-01-13 00:21:00",1280133,13.76,328.4,6.773,1.257,12.22,102.4101,5.45,6.681,14.3,0,109.9,13.2,6.22,290.4
"2016-01-13 00:21:30",1280134,13.86,324.5,6.436,1.414,12.24,102.4078,5.445,6.658,14.19,0,109.9,13.2,6.22,286.5
"2016-01-13 00:22:00",1280135,14.47,324.7,7.292,1.346,12.28,102.4078,5.445,6.659,14.16,0,109.9,13.2,6.22,286.7
"2016-01-13 00:22:30",1280136,13.66,326.7,6.892,1.419,12.86,102.4087,5.447,6.686,14.18,0,109.9,13.2,6.22,288.7
"2016-01-13 00:23:00",1280137,12.46,329.1,6.868,1.347,12.52,102.4138,5.46,6.701,14.13,0,109.9,13.2,6.23,291.1
"2016-01-13 00:23:30",1280138,12.5,330.1,6.641,1.345,12.62,102.4189,5.473,6.672,14.08,0,109.9,13.2,6.24,292.1
"2016-01-13 00:24:00",1280139,13.01,328.8,6.578,1.268,12.42,102.4225,5.482,6.699,14.11,0,109.9,13.2,6.25,290.8
"2016-01-13 00:24:30",1280140,12.23,327.2,6.699,1.316,12.3,102.422,5.481,6.694,14.15,0,109.9,13.2,6.25,289.2
"2016-01-13 00:25:00",1280141,11.87,329.4,6.449,1.332,12.77,102.4242,5.487,6.686,14.15,0,109.9,13.2,6.26,291.4
"2016-01-13 00:25:30",1280142,11.87,327.8,6.31,1.275,11.88,102.4257,5.49,6.714,14.17,0,109.9,13.2,6.26,289.8
"2016-01-13 00:26:00",1280143,11.02,328,6.726,1.345,11.3,102.4282,5.497,6.705,14.32,0,109.9,13.2,6.27,290.0
"2016-01-13 00:26:30",1280144,10.6,331.4,6.387,1.319,12.36,102.429,5.499,6.722,14.33,0,109.9,13.2,6.27,293.4
"2016-01-13 00:27:00",1280145,10.75,329.7,6.98,1.205,12.12,102.4276,5.495,6.716,14.27,0,109.9,13.2,6.27,291.7
"2016-01-13 00:27:30",1280146,11.39,330.9,7.224,1.502,12.1,102.4282,5.497,6.721,14.26,0,109.9,13.19,6.27,292.9
"2016-01-13 00:28:00",1280147,11.42,333.4,6.76,1.35,11.98,102.4265,5.492,6.732,14.24,0,109.9,13.2,6.26,295.4
"2016-01-13 00:28:30",1280148,10.64,332.9,6.797,1.311,11.93,102.427,5.494,6.725,14.21,0,109.9,13.2,6.26,294.9
"2016-01-13 00:29:00",1280149,10.29,334.6,6.611,1.385,11.93,102.4265,5.492,6.695,14.22,0,109.9,13.2,6.26,296.6
"2016-01-13 00:29:30",1280150,9.45,335.3,7.484,1.317,10.66,102.4259,5.491,6.637,14.18,0,109.9,13.2,6.26,297.3
"2016-01-13 00:30:00",1280151,7.14,326.4,2.278,0.353,7.02,102.4254,5.49,6.448,14.19,0,109.9,13.25,6.26,288.4
"2016-01-13 00:30:30",1280152,6.485,335,4.342,0.255,6.711,102.4231,5.484,6.452,14.42,0,109.9,13.25,6.25,297.0
"2016-01-13 00:31:00",1280153,9.53,342,8.03,1.528,10.57,102.4172,5.469,6.661,14.75,0,109.9,13.21,6.24,304.0
"2016-01-13 00:31:30",1280154,10.15,339.6,8.26,1.631,11.71,102.4081,5.445,6.698,14.75,0,109.9,13.21,6.22,301.6
"2016-01-13 00:32:00",1280155,11.01,340.3,6.423,1.37,12.14,102.401,5.427,6.682,14.59,0,109.9,13.21,6.20,302.3
"2016-01-13 00:32:30",1280156,9.87,343,7.262,1.379,11.32,102.3855,5.388,6.689,14.75,0,109.9,13.21,6.16,305.0
"2016-01-13 00:33:00",1280157,11.28,338.6,6.161,1.26,12.21,102.3748,5.36,6.682,14.72,0,109.9,13.21,6.13,300.6
"2016-01-13 00:33:30",1280158,11.15,335.9,6.501,1.27,12.05,102.3649,5.335,6.656,14.53,0,109.9,13.22,6.11,297.9
"2016-01-13 00:34:00",1280159,10.31,339.5,7.577,1.345,10.62,102.3488,5.294,6.617,14.67,0,109.9,13.22,6.06,301.5
"2016-01-13 00:34:30",1280160,10.25,334.6,7.103,1.443,10.92,102.3406,5.273,6.52,14.7,0,109.9,13.22,6.04,296.6
"2016-01-13 00:35:00",1280161,9.14,320.8,2.935,0.497,8.38,102.3273,5.239,6.326,14.4,0,109.9,13.22,6.01,282.8
"2016-01-13 00:35:30",1280162,9.55,326.7,6.745,1.441,10.9,102.3072,5.188,6.407,14.31,0,109.9,13.22,5.96,288.7
"2016-01-13 00:36:00",1280163,9.71,324.8,7.333,1.376,11.07,102.3066,5.186,6.396,14.24,0,109.9,13.22,5.96,286.8
"2016-01-13 00:36:30",1280164,11.22,331.6,6.744,1.285,12.48,102.3066,5.186,6.467,14.33,0,109.9,13.22,5.96,293.6
"2016-01-13 00:37:00",1280165,11.14,334.1,7.046,1.356,12.52,102.3058,5.184,6.453,14.52,0,109.9,13.22,5.95,296.1
"2016-01-13 00:37:30",1280166,12.48,341.3,9,1.402,12.94,102.2982,5.165,6.473,14.55,0,109.9,13.22,5.93,303.3
"2016-01-13 00:38:00",1280167,11.35,332.3,7.805,1.465,12.49,102.297,5.162,6.458,14.52,0,109.8,13.23,5.93,294.3
"2016-01-13 00:38:30",1280168,11.93,333,8.19,1.241,12.03,102.3013,5.173,6.438,14.56,0,109.9,13.23,5.94,295.0
"2016-01-13 00:39:00",1280169,11.08,333.1,10.1,2.014,11.86,102.3052,5.183,6.445,14.75,0,109.9,13.23,5.95,295.1
"2016-01-13 00:39:30",1280170,12.18,330.8,8.14,1.385,11.96,102.3064,5.186,6.431,14.71,0,109.9,13.23,5.96,292.8
"2016-01-13 00:40:00",1280171,9.39,336.4,9.82,1.501,11.68,102.3066,5.186,6.448,14.72,0,109.9,13.23,5.96,298.4
"2016-01-13 00:40:30",1280172,6.779,340.8,8.64,1.507,10.67,102.3061,5.185,6.424,14.94,0,109.9,13.23,5.96,302.8
"2016-01-13 00:41:00",1280173,5.927,335.3,14.38,0.793,6.369,102.3024,5.175,6.175,15.07,0,109.9,13.28,5.95,297.3
"2016-01-13 00:41:30",1280174,7.373,339.3,4.468,0.962,6.714,102.2919,5.149,6.142,15.19,0,109.9,13.28,5.92,301.3
"2016-01-13 00:42:00",1280175,9.5,338.8,12.16,1.548,9.32,102.2775,5.112,6.294,15.27,0,109.9,13.24,5.88,300.8
"2016-01-13 00:42:30",1280176,10.46,351.8,9.81,1.479,11.29,102.2716,5.097,6.389,15.48,0,110,13.24,5.87,313.8
"2016-01-13 00:43:00",1280177,10.4,339,10.66,1.339,11.9,102.2558,5.056,6.382,15.35,0,109.9,13.24,5.83,301.0
"2016-01-13 00:43:30",1280178,9.21,336.5,9.12,1.642,11.11,102.2394,5.014,6.362,15.39,0,109.9,13.24,5.78,298.5
"2016-01-13 00:44:00",1280179,9.42,330.9,10.62,1.392,11.34,102.2272,4.983,6.317,15.37,0,109.9,13.24,5.75,292.9
"2016-01-13 00:44:30",1280180,10.72,335.2,8.37,1.344,11.94,102.2055,4.928,6.298,15.25,0,109.9,13.24,5.70,297.2
"2016-01-13 00:45:00",1280181,9.12,340.7,11.1,2.046,11.17,102.2038,4.923,6.269,15.18,0,109.9,13.24,5.69,302.7
"2016-01-13 00:45:30",1280182,7.932,349.2,8.4,1.452,10.02,102.1811,4.866,6.199,15.41,0,109.9,13.24,5.63,311.2
"2016-01-13 00:46:00",1280183,7.088,339.5,10.13,1.08,8.04,102.171,4.84,6.015,15.51,0,109.9,13.25,5.61,301.5
"2016-01-13 00:46:30",1280184,6.4,335,5.687,0.723,7.096,102.1633,4.82,5.904,15.25,0,109.9,13.29,5.59,297.0
"2016-01-13 00:47:00",1280185,9.56,341.8,7.529,1.487,9.77,102.15,4.786,6.03,15.42,0,109.9,13.25,5.56,303.8
"2016-01-13 00:47:30",1280186,8.9,346.9,8.82,1.651,11.5,102.1376,4.755,6.115,15.53,0,109.9,13.25,5.52,308.9
"2016-01-13 00:48:00",1280187,6.754,351.9,8.43,1.485,11.52,102.1286,4.731,6.105,15.66,0,109.9,13.26,5.50,313.9
"2016-01-13 00:48:30",1280188,7.582,354.1,11.71,1.662,10.32,102.1164,4.7,6.017,15.73,0,109.9,13.26,5.47,316.1
"2016-01-13 00:49:00",1280189,8.12,347.5,7.835,1.536,9.54,102.1037,4.668,5.947,15.85,0,109.9,13.26,5.44,309.5
"2016-01-13 00:49:30",1280190,7.434,324.7,11.58,1.281,7.616,102.0977,4.653,5.808,15.76,0,109.9,13.27,5.42,286.7
"2016-01-13 00:50:00",1280191,10.54,330.1,6.931,1.332,10.13,102.0847,4.62,5.834,15.59,0,109.9,13.27,5.39,292.1
"2016-01-13 00:50:30",1280192,10.74,333.5,6.952,1.408,10.82,102.0746,4.594,5.91,15.62,0,109.9,13.27,5.36,295.5
"2016-01-13 00:51:00",1280193,10.77,336.8,8.07,1.33,10.86,102.0686,4.578,5.912,15.84,0,109.9,13.27,5.35,298.8
"2016-01-13 00:51:30",1280194,11.19,339.7,7.131,1.4,11.94,102.0536,4.54,5.884,15.8,0,109.9,13.27,5.31,301.7
"2016-01-13 00:52:00",1280195,9.57,338.8,9.32,1.323,10.97,102.0474,4.524,5.844,15.76,0,109.9,13.27,5.29,300.8
"2016-01-13 00:52:30",1280196,8.46,334.3,6.88,1.453,9.84,102.0364,4.496,5.774,15.93,0,109.9,13.27,5.26,296.3
"2016-01-13 00:53:00",1280197,7.028,335.5,11.33,1.066,8.85,102.0353,4.493,5.715,15.96,0,109.9,13.27,5.26,297.5
"2016-01-13 00:53:30",1280198,8.2,340.2,7.498,1.2,9.01,102.0353,4.493,5.628,15.96,0,109.9,13.28,5.26,302.2
"2016-01-13 00:54:00",1280199,9,347.2,8.98,1.522,10.6,102.0316,4.484,5.774,16.17,0,109.9,13.28,5.25,309.2
"2016-01-13 00:54:30",1280200,7.174,352.9,8.26,1.598,10.49,102.02,4.454,5.766,16.23,0,109.9,13.28,5.22,314.9
"2016-01-13 00:55:00",1280201,7.111,350.5,11.06,1.442,10.37,102.0158,4.443,5.742,16.33,0,109.9,13.28,5.21,312.5
"2016-01-13 00:55:30",1280202,6.505,351.2,9.82,1.574,9.64,102.0019,4.408,5.661,16.33,0,109.9,13.28,5.18,313.2
"2016-01-13 00:56:00",1280203,6.124,351.3,6.327,1.352,8.86,102.0019,4.408,5.644,16.28,0,109.9,13.28,5.18,313.3
"2016-01-13 00:56:30",1280204,5.51,347.9,3.643,0.385,6.965,101.9966,4.394,5.47,16.16,0,109.9,13.33,5.16,309.9
"2016-01-13 00:57:00",1280205,6.94,350.7,7.612,1.534,10.01,101.9844,4.363,5.701,16.45,0,109.9,13.28,5.13,312.7
"2016-01-13 00:57:30",1280206,7.817,350.2,7.701,1.674,10.7,101.9725,4.333,5.65,16.5,0,109.9,13.29,5.10,312.2
"2016-01-13 00:58:00",1280207,9.66,354.6,7.151,1.625,11.47,101.968,4.322,5.665,16.38,0,109.9,13.28,5.09,316.6
"2016-01-13 00:58:30",1280208,8.16,3.556,6.566,1.631,11.01,101.9686,4.323,5.672,16.43,0,109.9,13.29,5.09,325.6
"2016-01-13 00:59:00",1280209,8.83,1.174,6.873,1.546,10.78,101.9587,4.298,5.68,16.6,0,109.9,13.28,5.06,323.2
"2016-01-13 00:59:30",1280210,10.57,355.6,6.485,1.306,10.92,101.9531,4.283,5.633,16.68,0,109.9,13.28,5.05,317.6
"2016-01-13 01:00:00",1280211,10.72,355.4,6.795,1.285,10.95,101.9466,4.267,5.629,16.63,0,109.9,13.28,5.03,317.4
"2016-01-13 01:00:30",1280212,10.58,350.1,7.728,1.618,10.84,101.9452,4.263,5.527,16.45,0,109.9,13.28,5.03,312.1
"2016-01-13 01:01:00",1280213,9.48,350.1,6.427,1.257,9.17,101.9475,4.269,5.466,16.32,0,109.9,13.27,5.04,312.1
"2016-01-13 01:01:30",1280214,8.33,344.3,5.071,0.932,7.854,101.9495,4.274,5.327,16.26,0,109.9,13.27,5.04,306.3
"2016-01-13 01:02:00",1280215,8.46,348.5,6.191,1.48,9.96,101.95,4.276,5.511,16.48,0,109.9,13.28,5.04,310.5
"2016-01-13 01:02:30",1280216,8.66,357.1,6.492,1.418,11.8,101.9535,4.284,5.594,16.61,0,109.9,13.28,5.05,319.1
"2016-01-13 01:03:00",1280217,10.03,352.4,7.73,1.347,11.53,101.9586,4.297,5.553,16.55,0,109.9,13.27,5.06,314.4
"2016-01-13 01:03:30",1280218,9.57,350.8,7.115,1.493,11.01,101.9637,4.311,5.563,16.49,0,109.9,13.28,5.08,312.8
"2016-01-13 01:04:00",1280219,10.08,351.3,6.911,1.315,11.27,101.9711,4.329,5.563,16.51,0,109.9,13.28,5.10,313.3
"2016-01-13 01:04:30",1280220,8.47,347.9,6.858,1.472,9.15,101.977,4.344,5.477,16.47,0,109.9,13.29,5.11,309.9
"2016-01-13 01:05:00",1280221,8.94,351.3,7.773,1.391,9.65,101.9801,4.352,5.448,16.47,0,109.9,13.29,5.12,313.3
"2016-01-13 01:05:30",1280222,8.93,352.1,6.349,1.505,9.37,101.9801,4.352,5.475,16.48,0,109.9,13.29,5.12,314.1
"2016-01-13 01:06:00",1280223,10.43,353.8,7.094,1.322,11.23,101.9813,4.355,5.573,16.58,0,109.9,13.29,5.12,315.8
"2016-01-13 01:06:30",1280224,10.87,351.3,7.279,1.493,11.6,101.9818,4.357,5.598,16.47,0,109.9,13.29,5.12,313.3
"2016-01-13 01:07:00",1280225,11.67,350.1,6.835,1.302,11.9,101.9841,4.363,5.629,16.37,0,109.9,13.29,5.13,312.1
"2016-01-13 01:07:30",1280226,11.25,355,7.09,1.349,11.77,101.9879,4.372,5.629,16.28,0,109.8,13.29,5.14,317.0
"2016-01-13 01:08:00",1280227,10.05,359.7,6.732,1.426,11.11,102.0009,4.405,5.656,16.38,0,109.9,13.29,5.17,321.7
"2016-01-13 01:08:30",1280228,9.99,1.14,6.924,2.104,11.23,102.0025,4.41,5.662,16.35,0,109.9,13.29,5.18,323.1
"2016-01-13 01:09:00",1280229,9.23,2.938,7.146,1.809,10.86,102.0116,4.433,5.657,16.33,0,109.9,13.29,5.20,324.9
"2016-01-13 01:09:30",1280230,10.12,359.2,6.851,1.804,10.46,102.0195,4.453,5.64,16.21,0,109.9,13.29,5.22,321.2
"2016-01-13 01:10:00",1280231,9.7,349.6,6.78,0.977,8.79,102.0207,4.456,5.474,15.91,0,109.9,13.29,5.22,311.6
"2016-01-13 01:10:30",1280232,7.889,354.5,7.105,1.79,8.53,102.0192,4.452,5.504,15.98,0,109.9,13.29,5.22,316.5
"2016-01-13 01:11:00",1280233,8.66,354.6,7.897,1.677,10.09,102.0249,4.467,5.612,16.08,0,109.9,13.29,5.23,316.6
"2016-01-13 01:11:30",1280234,8.55,354.7,8.54,1.43,11.61,102.0345,4.491,5.7,16.22,0,109.9,13.29,5.26,316.7
"2016-01-13 01:12:00",1280235,8.42,353.8,7.49,1.334,11.28,102.0368,4.497,5.693,16.17,0,109.9,13.29,5.26,315.8
"2016-01-13 01:12:30",1280236,8.22,356.6,7.416,1.34,10.94,102.0382,4.501,5.692,16.17,0,109.9,13.29,5.27,318.6
"2016-01-13 01:13:00",1280237,5.957,1.524,8.11,1.636,9.23,102.0422,4.511,5.529,15.96,0,109.9,13.29,5.28,323.5
"2016-01-13 01:13:30",1280238,8.73,351.4,6.074,1.419,9.1,102.045,4.518,5.6,15.94,0,109.9,13.29,5.29,313.4
"2016-01-13 01:14:00",1280239,7,358.9,6.87,1.818,9.91,102.0498,4.53,5.644,15.94,0,109.9,13.29,5.30,320.9
"2016-01-13 01:14:30",1280240,7.853,355.4,8.12,1.59,10.81,102.0537,4.54,5.727,16.07,0,109.9,13.29,5.31,317.4
"2016-01-13 01:15:00",1280241,7.466,2.019,8.45,2.567,11.01,102.0532,4.539,5.704,16.01,0,109.9,13.29,5.31,324.0
"2016-01-13 01:15:30",1280242,7.455,355,10.92,1.74,9.98,102.0535,4.54,5.751,16.11,0,109.9,13.3,5.31,317.0
"2016-01-13 01:16:00",1280243,7.356,352,11.5,1.439,9.13,102.0526,4.537,5.627,16,0,109.9,13.29,5.31,314.0
"2016-01-13 01:16:30",1280244,8.83,352.1,8.65,1.671,10.08,102.0529,4.538,5.629,15.9,0,109.9,13.29,5.31,314.1
"2016-01-13 01:17:00",1280245,8.12,353.8,7.722,1.504,9.4,102.0552,4.544,5.717,15.9,0,109.9,13.29,5.31,315.8
"2016-01-13 01:17:30",1280246,7.925,358.3,7.807,1.543,11.18,102.0558,4.546,5.763,16.05,0,109.9,13.29,5.31,320.3
"2016-01-13 01:18:00",1280247,8.22,356.2,8.17,1.338,10.52,102.0558,4.546,5.765,16.13,0,109.9,13.29,5.31,318.2
"2016-01-13 01:18:30",1280248,5.402,354.5,7.748,1.999,8.84,102.0558,4.546,5.688,16.15,0,109.9,13.29,5.31,316.5
"2016-01-13 01:19:00",1280249,7.565,353.6,8.76,1.48,9.68,102.0529,4.538,5.642,16.1,0,109.9,13.29,5.31,315.6
"2016-01-13 01:19:30",1280250,8.11,349.7,6.176,1.54,8.91,102.0453,4.519,5.661,16.01,0,109.9,13.29,5.29,311.7
"2016-01-13 01:20:00",1280251,9.66,353,8.74,1.381,10.1,102.0425,4.512,5.67,15.84,0,109.9,13.29,5.28,315.0
"2016-01-13 01:20:30",1280252,9.47,353.9,7.455,1.459,11.3,102.044,4.515,5.715,15.83,0,109.9,13.29,5.28,315.9
"2016-01-13 01:21:00",1280253,9.19,355.3,7.414,1.427,11.08,102.0434,4.514,5.714,15.85,0,109.9,13.29,5.28,317.3
"2016-01-13 01:21:30",1280254,9.45,356.2,7.457,1.349,10.88,102.0446,4.517,5.725,15.89,0,109.9,13.3,5.28,318.2
"2016-01-13 01:22:00",1280255,9.01,356.1,6.689,1.468,10.79,102.0434,4.514,5.732,15.95,0,109.9,13.3,5.28,318.1
"2016-01-13 01:22:30",1280256,9,347.8,6.669,1.495,9.4,102.0429,4.513,5.621,15.76,0,109.9,13.3,5.28,309.8
"2016-01-13 01:23:00",1280257,10.08,344.5,7.258,1.346,10.18,102.0446,4.517,5.684,15.66,0,109.9,13.3,5.28,306.5
"2016-01-13 01:23:30",1280258,10.01,345.8,6.028,1.628,10.86,102.0449,4.518,5.672,15.5,0,109.9,13.3,5.29,307.8
"2016-01-13 01:24:00",1280259,11.12,345.6,6.969,1.328,11.33,102.0508,4.533,5.688,15.45,0,109.9,13.3,5.30,307.6
"2016-01-13 01:24:30",1280260,10.64,346.1,7.68,1.332,11.01,102.0596,4.555,5.717,15.51,0,109.9,13.3,5.32,308.1
"2016-01-13 01:25:00",1280261,11.23,347.9,6.988,1.314,11.72,102.0615,4.56,5.759,15.54,0,109.8,13.3,5.33,309.9
"2016-01-13 01:25:30",1280262,10.35,350,7.378,1.314,11.7,102.063,4.564,5.764,15.6,0,109.9,13.3,5.33,312.0
"2016-01-13 01:26:00",1280263,11.1,344.4,8.06,1.152,11.16,102.0638,4.566,5.668,15.46,0,109.9,13.3,5.33,306.4
"2016-01-13 01:26:30",1280264,10.65,341.7,7.306,1.295,10.38,102.0777,4.601,5.702,15.43,0,109.9,13.3,5.37,303.7
"2016-01-13 01:27:00",1280265,11.4,344,6.95,1.344,11.23,102.0941,4.643,5.75,15.44,0,109.9,13.3,5.41,306.0
"2016-01-13 01:27:30",1280266,10.91,344.3,7.506,1.38,11.62,102.0969,4.651,5.832,15.51,0,109.9,13.3,5.42,306.3
"2016-01-13 01:28:00",1280267,10.65,343.3,6.994,1.285,11.94,102.1057,4.673,5.849,15.51,0,109.9,13.3,5.44,305.3
"2016-01-13 01:28:30",1280268,10.57,344.2,6.713,1.278,11.94,102.1164,4.7,5.896,15.53,0,109.9,13.3,5.47,306.2
"2016-01-13 01:29:00",1280269,9.64,340,6.73,1.463,10.48,102.1312,4.738,5.769,15.37,0,109.9,13.3,5.51,302.0
"2016-01-13 01:29:30",1280270,9.39,340.1,6.601,1.29,9.99,102.1329,4.742,5.804,15.38,0,109.9,13.3,5.51,302.1
"2016-01-13 01:30:00",1280271,10.96,341.5,7.158,1.457,11.32,102.1308,4.737,5.861,15.37,0,109.9,13.3,5.51,303.5
"2016-01-13 01:30:30",1280272,11.29,337.8,7.375,1.394,11.93,102.1418,4.765,5.95,15.25,0,109.9,13.3,5.53,299.8
"2016-01-13 01:31:00",1280273,10.7,342.4,7.116,1.459,11.79,102.1543,4.797,5.985,15.26,0,109.9,13.3,5.57,304.4
"2016-01-13 01:31:30",1280274,11.28,341.5,6.909,1.324,11.7,102.1636,4.821,5.971,15.3,0,109.9,13.3,5.59,303.5
"2016-01-13 01:32:00",1280275,10.47,340.2,8.29,1.773,10.8,102.1648,4.824,5.95,15.25,0,109.9,13.3,5.59,302.2
"2016-01-13 01:32:30",1280276,11.2,339.5,6.907,1.304,10.87,102.1713,4.841,5.95,15.29,0,109.9,13.29,5.61,301.5
"2016-01-13 01:33:00",1280277,12.24,344.2,7.743,1.497,11.47,102.1818,4.867,5.948,15.23,0,109.9,13.29,5.64,306.2
"2016-01-13 01:33:30",1280278,12.21,347.3,7.325,1.416,11.73,102.1914,4.892,6.013,15.3,0,109.9,13.29,5.66,309.3
"2016-01-13 01:34:00",1280279,10.24,353.4,8.66,2.058,11.82,102.1973,4.907,6.077,15.39,0,109.9,13.29,5.68,315.4
"2016-01-13 01:34:30",1280280,11.2,352.2,6.624,1.313,11.49,102.1975,4.908,6.123,15.47,0,109.9,13.29,5.68,314.2
"2016-01-13 01:35:00",1280281,10.62,352.1,6.955,1.305,10.99,102.1981,4.909,6.129,15.51,0,109.9,13.29,5.68,314.1
"2016-01-13 01:35:30",1280282,10.66,349,6.869,1.466,10.56,102.1973,4.907,6.144,15.53,0,109.9,13.29,5.68,311.0
"2016-01-13 01:36:00",1280283,10.46,348.2,7.515,1.382,10.18,102.1993,4.912,6.096,15.5,0,109.9,13.29,5.68,310.2
"2016-01-13 01:36:30",1280284,9.98,347.4,6.466,1.448,9.58,102.197,4.906,6.033,15.4,0,109.9,13.29,5.68,309.4
"2016-01-13 01:37:00",1280285,9.26,346.1,7.146,1.418,9.53,102.1829,4.87,6.007,15.41,0,109.9,13.29,5.64,308.1
"2016-01-13 01:37:30",1280286,7.766,349.5,5.708,1.809,8.29,102.175,4.85,5.936,15.44,0,109.9,13.29,5.62,311.5
"2016-01-13 01:38:00",1280287,8.13,355,8.04,1.656,10.31,102.1679,4.832,6.02,15.58,0,109.9,13.29,5.60,317.0
"2016-01-13 01:38:30",1280288,8.93,352.7,7.299,1.308,10.39,102.1501,4.786,6.017,15.65,0,109.9,13.3,5.56,314.7
"2016-01-13 01:39:00",1280289,7.625,350.9,7.027,1.632,10.51,102.1331,4.743,6.016,15.63,0,109.9,13.3,5.51,312.9
"2016-01-13 01:39:30",1280290,6.984,348.9,9.88,1.453,9.01,102.1323,4.741,5.972,15.64,0,109.9,13.3,5.51,310.9
"2016-01-13 01:40:00",1280291,8.15,352.4,6.804,1.72,9.22,102.1091,4.682,5.868,15.64,0,109.9,13.3,5.45,314.4
"2016-01-13 01:40:30",1280292,8.38,351.2,8.54,1.509,9.46,102.0995,4.657,5.896,15.73,0,109.9,13.3,5.43,313.2
"2016-01-13 01:41:00",1280293,5.706,11.13,11.27,2.783,9.55,102.0752,4.595,5.86,15.78,0,109.9,13.3,5.36,333.1
"2016-01-13 01:41:30",1280294,6.345,14.78,14.62,2.241,10.01,102.0625,4.563,5.882,15.94,0,109.9,13.3,5.33,336.8
"2016-01-13 01:42:00",1280295,4.833,13.72,14.49,2.663,8.53,102.0424,4.512,5.733,15.91,0,109.9,13.3,5.28,335.7
"2016-01-13 01:42:30",1280296,1.877,10.07,11.29,1.012,6.539,102.0326,4.486,5.586,15.83,0,109.9,13.3,5.25,332.1
"2016-01-13 01:43:00",1280297,4.813,23.69,9.14,1.795,8.32,102.0085,4.425,5.704,16.11,0,109.9,13.3,5.19,345.7
"2016-01-13 01:43:30",1280298,4.358,353.1,19.32,2.388,7.03,101.9998,4.403,5.633,16.1,0,109.9,13.3,5.17,315.1
"2016-01-13 01:44:00",1280299,5.524,328.3,11.88,1.766,10.07,101.9797,4.351,5.604,15.98,0,109.9,13.3,5.12,290.3
"2016-01-13 01:44:30",1280300,3.026,1.115,18.02,1.569,9.86,101.9672,4.32,5.59,16.03,0,109.9,13.3,5.09,323.1
"2016-01-13 01:45:00",1280301,4.248,350.6,27.99,1.222,8.08,101.9474,4.269,5.453,16.11,0,109.9,13.3,5.04,312.6
"2016-01-13 01:45:30",1280302,4.8,323.9,14.17,1.043,7.336,101.9339,4.234,5.399,16.19,0,109.9,13.3,5.00,285.9
"2016-01-13 01:46:00",1280303,4.661,338.4,18.18,1.613,9.07,101.9308,4.226,5.444,16.28,0,109.9,13.31,4.99,300.4
"2016-01-13 01:46:30",1280304,2.734,6.708,15.7,1.458,8.26,101.9161,4.189,5.464,16.37,0,109.9,13.31,4.96,328.7
"2016-01-13 01:47:00",1280305,3.728,12.2,13.68,1.702,8.78,101.9025,4.154,5.409,16.41,0,109.9,13.31,4.92,334.2
"2016-01-13 01:47:30",1280306,3.28,26.77,10.38,1.426,8.88,101.8954,4.136,5.372,16.53,0,109.9,13.31,4.90,348.8
"2016-01-13 01:48:00",1280307,4.972,356.3,17.08,2.01,8.39,101.8793,4.095,5.31,16.48,0,109.9,13.31,4.86,318.3
"2016-01-13 01:48:30",1280308,4.546,338.6,15.83,0.566,7.31,101.8666,4.063,5.178,16.3,0,109.9,13.35,4.83,300.6